| time (UTC) | temp C | wind direction | speed KPH | gust KPH | rain 1hr cm | rain 24hr cm | rain mn cm | humidity % | barometer mb |
| 20260506131558 | 11 | 0 | 0.0 | 0.0 | 0.00 | 0.00 | 0.00 | 90 | 1019.3 |
| 20260506124556 | 11 | 0 | 0.0 | 0.0 | 0.00 | 0.00 | 0.00 | 88 | 1019.2 |
| 20260506123056 | 11 | 0 | 0.0 | 0.0 | 0.00 | 0.00 | 0.00 | 87 | 1019.1 |
| 20260506121559 | 12 | 0 | 0.0 | 0.0 | 0.00 | 0.00 | 0.00 | 86 | 1018.8 |
| 20260506120111 | 12 | 0 | 0.0 | 0.0 | 0.00 | 0.00 | 0.00 | 86 | 1018.6 |
| 20260506114557 | 12 | 0 | 0.0 | 3.2 | 0.00 | 0.00 | 0.00 | 86 | 1018.4 |
| 20260506113059 | 12 | 0 | 0.0 | 4.8 | 0.00 | 0.00 | 0.00 | 86 | 1018.6 |
| 20260506111557 | 12 | 77 | 1.6 | 8.0 | 0.00 | 0.00 | 0.00 | 86 | 1018.4 |
| 20260506110100 | 12 | 0 | 1.6 | 3.2 | 0.00 | 0.00 | 0.00 | 87 | 1018.6 |
| 20260506104600 | 12 | 70 | 1.6 | 4.8 | 0.00 | 0.00 | 0.00 | 87 | 1018.5 |
| 20260506103119 | 12 | 82 | 0.0 | 6.4 | 0.00 | 0.00 | 0.00 | 86 | 1018.4 |
| 20260506101556 | 12 | 71 | 1.6 | 8.0 | 0.00 | 0.00 | 0.00 | 87 | 1018.4 |
| 20260506100056 | 12 | 90 | 3.2 | 6.4 | 0.00 | 0.00 | 0.00 | 87 | 1018.4 |
| 20260506094605 | 12 | 92 | 1.6 | 6.4 | 0.00 | 0.00 | 0.00 | 88 | 1018.6 |
| 20260506093059 | 12 | 0 | 0.0 | 3.2 | 0.00 | 0.00 | 0.00 | 87 | 1018.6 |
| 20260506091607 | 12 | 0 | 0.0 | 4.8 | 0.00 | 0.00 | 0.00 | 87 | 1019.0 |
| 20260506090100 | 12 | 0 | 0.0 | 6.4 | 0.00 | 0.00 | 0.00 | 87 | 1018.7 |
| 20260506084615 | 13 | 94 | 3.2 | 11.3 | 0.00 | 0.00 | 0.00 | 87 | 1018.9 |
| 20260506083057 | 13 | 71 | 3.2 | 9.7 | 0.00 | 0.00 | 0.00 | 87 | 1018.9 |
| 20260506081607 | 13 | 101 | 3.2 | 12.9 | 0.00 | 0.00 | 0.00 | 87 | 1019.0 |
| 20260506073101 | 13 | 69 | 3.2 | 12.9 | 0.00 | 0.00 | 0.00 | 88 | 1018.9 |
| 20260506071558 | 13 | 77 | 6.4 | 12.9 | 0.00 | 0.00 | 0.00 | 88 | 1018.8 |
| 20260506061602 | 13 | 86 | 3.2 | 9.7 | 0.00 | 0.00 | 0.00 | 88 | 1018.2 |
| 20260506050118 | 13 | 58 | 3.2 | 8.0 | 0.00 | 0.00 | 0.00 | 88 | 1017.8 |
| 20260506044601 | 13 | 96 | 3.2 | 8.0 | 0.00 | 0.00 | 0.00 | 87 | 1017.7 |
| 20260506043115 | 13 | 83 | 4.8 | 9.7 | 0.00 | 0.00 | 0.00 | 88 | 1017.5 |
| 20260506041600 | 13 | 107 | 1.6 | 6.4 | 0.00 | 0.00 | 0.00 | 87 | 1017.4 |
| 20260506040110 | 13 | 128 | 1.6 | 4.8 | 0.00 | 0.00 | 0.00 | 87 | 1017.1 |
| 20260506034606 | 14 | 131 | 1.6 | 6.4 | 0.00 | 0.00 | 0.00 | 86 | 1016.8 |
| 20260506033059 | 14 | 175 | 0.0 | 3.2 | 0.00 | 0.00 | 0.00 | 85 | 1016.5 |
| 20260506031600 | 15 | 165 | 0.0 | 6.4 | 0.00 | 0.00 | 0.00 | 83 | 1016.5 |
| 20260506024602 | 15 | 184 | 1.6 | 4.8 | 0.00 | 0.00 | 0.00 | 79 | 1015.9 |
| 20260506023100 | 16 | 0 | 0.0 | 3.2 | 0.00 | 0.00 | 0.00 | 78 | 1015.6 |
| 20260506021605 | 16 | 0 | 0.0 | 4.8 | 0.00 | 0.00 | 0.00 | 76 | 1015.5 |
| 20260506020059 | 17 | 284 | 0.0 | 4.8 | 0.00 | 0.00 | 0.00 | 74 | 1015.3 |
| 20260506014601 | 17 | 285 | 0.0 | 6.4 | 0.00 | 0.00 | 0.00 | 74 | 1015.2 |
| 20260506013106 | 17 | 0 | 0.0 | 9.7 | 0.00 | 0.00 | 0.00 | 75 | 1015.2 |
| 20260506011607 | 17 | 281 | 1.6 | 12.9 | 0.00 | 0.00 | 0.00 | 75 | 1015.1 |
| 20260506010058 | 17 | 298 | 0.0 | 14.5 | 0.00 | 0.00 | 0.00 | 75 | 1015.2 |
| 20260506004558 | 17 | 288 | 1.6 | 8.0 | 0.00 | 0.00 | 0.00 | 75 | 1015.2 |
| 20260506003059 | 17 | 257 | 1.6 | 16.1 | 0.00 | 0.00 | 0.00 | 76 | 1015.6 |
| 20260506001604 | 17 | 293 | 1.6 | 16.1 | 0.00 | 0.00 | 0.00 | 75 | 1015.6 |
| 20260506000059 | 17 | 278 | 3.2 | 6.4 | 0.00 | 0.00 | 0.00 | 73 | 1015.4 |
| 20260505234609 | 18 | 157 | 1.6 | 12.9 | 0.00 | 0.00 | 0.00 | 72 | 1015.4 |
| 20260505233059 | 18 | 290 | 3.2 | 11.3 | 0.00 | 0.00 | 0.00 | 72 | 1015.4 |
| 20260505231608 | 19 | 0 | 1.6 | 14.5 | 0.00 | 0.00 | 0.00 | 70 | 1015.3 |
| 20260505230058 | 19 | 280 | 1.6 | 9.7 | 0.00 | 0.00 | 0.00 | 70 | 1015.3 |
| 20260505224600 | 18 | 272 | 3.2 | 14.5 | 0.00 | 0.00 | 0.00 | 71 | 1015.5 |
| 20260505223106 | 17 | 270 | 3.2 | 17.7 | 0.00 | 0.00 | 0.00 | 73 | 1015.8 |
| 20260505221600 | 17 | 285 | 1.6 | 16.1 | 0.00 | 0.00 | 0.00 | 75 | 1015.9 |
| 20260505220058 | 18 | 260 | 3.2 | 9.7 | 0.00 | 0.00 | 0.00 | 73 | 1016.1 |
| 20260505214621 | 18 | 235 | 1.6 | 8.0 | 0.00 | 0.00 | 0.00 | 70 | 1016.3 |
| 20260505213104 | 19 | 5 | 1.6 | 9.7 | 0.00 | 0.00 | 0.00 | 70 | 1016.4 |
| 20260505211608 | 18 | 198 | 1.6 | 14.5 | 0.00 | 0.00 | 0.00 | 73 | 1016.5 |
| 20260505210057 | 18 | 289 | 1.6 | 24.1 | 0.00 | 0.00 | 0.00 | 72 | 1016.4 |
| 20260505204559 | 17 | 221 | 1.6 | 22.5 | 0.00 | 0.00 | 0.00 | 73 | 1016.4 |
| 20260505203100 | 17 | 205 | 1.6 | 17.7 | 0.00 | 0.00 | 0.00 | 73 | 1016.3 |
| 20260505201600 | 18 | 279 | 4.8 | 22.5 | 0.00 | 0.00 | 0.00 | 71 | 1016.3 |
| 20260505200106 | 18 | 286 | 3.2 | 14.5 | 0.00 | 0.00 | 0.00 | 70 | 1016.3 |
| 20260505194600 | 18 | 263 | 1.6 | 6.4 | 0.00 | 0.00 | 0.00 | 70 | 1016.4 |
| 20260505193100 | 18 | 288 | 1.6 | 6.4 | 0.00 | 0.00 | 0.00 | 66 | 1016.3 |
| 20260505191558 | 18 | 284 | 1.6 | 16.1 | 0.00 | 0.00 | 0.00 | 68 | 1016.5 |
| 20260505190100 | 18 | 289 | 3.2 | 19.3 | 0.00 | 0.00 | 0.00 | 66 | 1016.4 |
| 20260505184557 | 18 | 222 | 6.4 | 22.5 | 0.00 | 0.00 | 0.00 | 61 | 1016.4 |
| 20260505183106 | 18 | 284 | 3.2 | 14.5 | 0.00 | 0.00 | 0.00 | 62 | 1016.2 |
| 20260505181600 | 18 | 250 | 1.6 | 12.9 | 0.00 | 0.00 | 0.00 | 65 | 1016.2 |
| 20260505180105 | 18 | 288 | 1.6 | 6.4 | 0.00 | 0.00 | 0.00 | 62 | 1016.2 |
| 20260505174601 | 18 | 279 | 1.6 | 12.9 | 0.00 | 0.00 | 0.00 | 62 | 1016.1 |
| 20260505173101 | 17 | 241 | 1.6 | 9.7 | 0.00 | 0.00 | 0.00 | 65 | 1016.0 |
| 20260505171600 | 16 | 193 | 1.6 | 11.3 | 0.00 | 0.00 | 0.00 | 68 | 1015.8 |
| 20260505170057 | 15 | 0 | 3.2 | 11.3 | 0.00 | 0.00 | 0.00 | 71 | 1015.9 |
| 20260505164606 | 16 | 0 | 0.0 | 6.4 | 0.00 | 0.00 | 0.00 | 71 | 1015.7 |
| 20260505163101 | 16 | 0 | 0.0 | 4.8 | 0.00 | 0.00 | 0.00 | 74 | 1015.8 |
| 20260505153108 | 14 | 0 | 4.8 | 8.0 | 0.00 | 0.00 | 0.00 | 83 | 1015.6 |
| 20260505151610 | 14 | 68 | 3.2 | 9.7 | 0.00 | 0.00 | 0.00 | 82 | 1015.5 |
| 20260505140113 | 11 | 0 | 0.0 | 0.0 | 0.00 | 0.00 | 0.00 | 91 | 1015.1 |